Iowa City, IA

8:55 AM CDT on April 30, 2017 (GMT -0500)
Iowa City Municipal

Weather History for KIOW - March, 2013

Change the Weather History Date:

Tuesday, March 5, 2013

  Actual Average Record
Temperature  
Mean Temperature 30 °F 33 °F  
Max Temperature 31 °F 42 °F 71 °F (2009)
Min Temperature 28 °F 25 °F -8 °F (1960)
Degree Days  
Heating Degree Days 35 32  
Month to date heating degree days 199 164  
Since 1 July heating degree days 4885 5114  
Cooling Degree Days 0 0  
Month to date cooling degree days 0 0  
Year to date cooling degree days 0 0  
Moisture  
Dew Point 25 °F    
Average Humidity 81    
Maximum Humidity 92    
Minimum Humidity 69    
Precipitation  
Precipitation 0.09 in 0.08 in 1.25 in (1959)
Month to date precipitation 0.14 0.37  
Year to date precipitation 2.59 2.53  
Sea Level Pressure  
Sea Level Pressure 29.99 in    
Wind  
Wind Speed 12 mph (NNW)    
Max Wind Speed 23 mph    
Max Gust Speed 30 mph    
Visibility 4 miles    
Events Snow    
T = Trace of Precipitation, MM = Missing Value Source: NWS Daily Summary

Daily Weather History Graph

Daily Weather History Graph

Search for Another Location

Airport or City:

Trip Planner

Search our weather history database for the weather conditions in past years. The results will help you decide how hot, cold, wet, or windy it might be!

Date:

Astronomy

Mar. 05, 2013 Rise Set
Actual Time 6:34 AM CST 6:01 PM CST
Civil Twilight 6:06 AM CST 6:29 PM CST
Nautical Twilight 5:34 AM CST 7:01 PM CST
Astronomical Twilight 5:02 AM CST 7:33 PM CST
Moon 1:50 AM CST (3/5) 11:37 AM CST (3/5)
Length of Visible Light 12h 23m
Length of Day
11h 27m
Last Quarter, 40% of the Moon is Illuminated
Mar 5
Last Quarter
Mar 11
New
Mar 19
First Quarter
Mar 27
Full
Apr 2
Last Quarter

Hourly Weather History & Observations

Time (CST) Temp. Windchill Dew Point Humidity Pressure Visibility Wind Dir Wind Speed Gust Speed Precip Events Conditions
1:48 AM 28.4 °F 21.2 °F 24.8 °F 86% 29.94 in 2.5 mi NNE 6.9 mph - 0.00 in Snow Light Snow
1:52 AM 28.9 °F 22.8 °F 26.1 °F 89% 29.96 in 2.5 mi NNE 5.8 mph - 0.00 in Snow Light Snow
2:11 AM 28.4 °F 22.2 °F 26.6 °F 93% 29.93 in 1.5 mi NNE 5.8 mph - 0.00 in Snow Light Snow
2:32 AM 28.4 °F 22.2 °F 26.6 °F 93% 29.92 in 1.0 mi NNE 5.8 mph - 0.00 in Snow Light Snow
2:41 AM 28.4 °F 21.2 °F 26.6 °F 93% 29.92 in 0.8 mi NNE 6.9 mph - 0.00 in Snow Light Snow
2:50 AM 28.4 °F 22.2 °F 26.6 °F 93% 29.92 in 1.2 mi NNE 5.8 mph - 0.00 in Snow Light Snow
2:52 AM 28.0 °F 21.7 °F 26.1 °F 92% 29.94 in 1.2 mi NNE 5.8 mph - 0.00 in Snow Light Snow
3:08 AM 28.4 °F 21.2 °F 26.6 °F 93% 29.92 in 0.8 mi NE 6.9 mph - 0.00 in Snow Light Snow
3:22 AM 28.4 °F 21.2 °F 26.6 °F 93% 29.91 in 1.0 mi NNE 6.9 mph - 0.00 in Snow Light Snow
3:52 AM 28.0 °F 22.8 °F 26.1 °F 92% 29.94 in 1.0 mi North 4.6 mph - 0.00 in Snow Light Snow
3:59 AM 28.4 °F 23.3 °F 26.6 °F 93% 29.92 in 1.2 mi North 4.6 mph - 0.00 in Snow Light Snow
4:06 AM 28.4 °F 24.6 °F 26.6 °F 93% 29.92 in 1.0 mi North 3.5 mph - 0.00 in Snow Light Snow
4:21 AM 28.4 °F 23.3 °F 26.6 °F 93% 29.92 in 0.8 mi North 4.6 mph - 0.00 in Snow Light Snow
4:29 AM 28.4 °F 24.6 °F 26.6 °F 93% 29.92 in 1.0 mi North 3.5 mph - 0.00 in Snow Light Snow
4:52 AM 28.0 °F 22.8 °F 26.1 °F 92% 29.95 in 1.0 mi NW 4.6 mph - 0.00 in Snow Light Snow
5:27 AM 28.4 °F 23.3 °F 26.6 °F 93% 29.92 in 1.2 mi NNW 4.6 mph - 0.00 in Snow Light Snow
5:41 AM 28.4 °F 24.6 °F 26.6 °F 93% 29.93 in 1.8 mi NW 3.5 mph - 0.00 in Snow Light Snow
5:49 AM 28.4 °F 23.3 °F 26.6 °F 93% 29.94 in 2.0 mi NW 4.6 mph - 0.00 in Snow Light Snow
5:52 AM 28.0 °F 20.8 °F 26.1 °F 92% 29.96 in 2.0 mi NW 6.9 mph - 0.00 in Snow Light Snow
6:02 AM 28.4 °F 22.2 °F 26.6 °F 93% 29.94 in 1.5 mi NW 5.8 mph - 0.00 in Snow Light Snow
6:12 AM 28.4 °F - 26.6 °F 93% 29.94 in 1.0 mi Calm Calm - 0.00 in Snow Light Snow
6:52 AM 28.0 °F 20.8 °F 26.1 °F 92% 29.97 in 0.8 mi NW 6.9 mph - 0.00 in Snow Light Snow
7:33 AM 28.4 °F 22.2 °F 26.6 °F 93% 29.94 in 0.8 mi NNW 5.8 mph - 0.00 in Snow Light Snow
7:52 AM 28.0 °F 20.8 °F 26.1 °F 92% 29.96 in 0.8 mi NW 6.9 mph - 0.00 in Snow Light Snow
8:03 AM 28.4 °F 22.2 °F 26.6 °F 93% 29.94 in 1.0 mi NW 5.8 mph - 0.00 in Snow Light Snow
8:24 AM 28.4 °F 21.2 °F 26.6 °F 93% 29.94 in 0.8 mi WNW 6.9 mph - 0.00 in Snow Light Snow
8:30 AM 28.4 °F 22.2 °F 26.6 °F 93% 29.94 in 1.0 mi NW 5.8 mph - 0.00 in Snow Light Snow
8:43 AM 28.4 °F 19.1 °F 26.6 °F 93% 29.94 in 1.5 mi NW 10.4 mph - 0.00 in Snow Light Snow
8:52 AM 28.0 °F 19.3 °F 26.1 °F 92% 29.96 in 2.0 mi WNW 9.2 mph - 0.00 in Snow Light Snow
9:06 AM 28.4 °F 18.0 °F 24.8 °F 86% 29.94 in 3.0 mi WNW 12.7 mph - 0.00 in Snow Light Snow
9:44 AM 28.4 °F 18.0 °F 24.8 °F 86% 29.94 in 4.0 mi WNW 12.7 mph 23.0 mph 0.00 in Snow Light Snow
9:52 AM 28.9 °F 19.2 °F 25.0 °F 85% 29.96 in 4.0 mi NW 11.5 mph - 0.00 in Snow Light Snow
10:31 AM 30.2 °F 18.9 °F 24.8 °F 80% 29.94 in 8.0 mi NW 16.1 mph 23.0 mph 0.00 in   Overcast
10:52 AM 30.0 °F 19.1 °F 25.0 °F 82% 29.96 in 9.0 mi NW 15.0 mph 24.2 mph 0.00 in   Overcast
11:52 AM 30.0 °F 16.9 °F 24.1 °F 79% 29.96 in 10.0 mi NW 21.9 mph 28.8 mph 0.01 in   Overcast
12:52 PM 30.0 °F 19.5 °F 24.1 °F 79% 29.96 in 10.0 mi NW 13.8 mph 23.0 mph 0.02 in   Overcast
1:52 PM 30.0 °F 19.1 °F 25.0 °F 82% 29.97 in 5.0 mi WNW 15.0 mph 24.2 mph 0.03 in Snow Light Snow
2:52 PM 30.9 °F 19.4 °F 25.0 °F 79% 29.98 in 7.0 mi WNW 17.3 mph 27.6 mph 0.01 in Snow Light Snow
3:52 PM 30.9 °F 20.7 °F 25.0 °F 79% 30.00 in 9.0 mi NW 13.8 mph 21.9 mph 0.01 in   Overcast
4:52 PM 30.9 °F 19.8 °F 23.0 °F 72% 30.03 in 10.0 mi NW 16.1 mph 23.0 mph 0.01 in   Overcast
5:37 PM 30.2 °F 19.3 °F 23.0 °F 75% 30.03 in 10.0 mi NW 15.0 mph 29.9 mph N/A   Overcast
5:52 PM 30.0 °F 17.9 °F 23.0 °F 75% 30.06 in 10.0 mi NW 18.4 mph 25.3 mph N/A   Overcast
6:52 PM 30.0 °F 18.3 °F 21.9 °F 72% 30.10 in 10.0 mi NW 17.3 mph 24.2 mph N/A   Overcast
7:52 PM 28.9 °F 18.2 °F 23.0 °F 78% 30.12 in 10.0 mi NNW 13.8 mph - N/A   Overcast
8:09 PM 28.4 °F 18.0 °F 23.0 °F 80% 30.11 in 10.0 mi NNW 12.7 mph 23.0 mph N/A   Overcast
8:35 PM 28.4 °F 16.6 °F 23.0 °F 80% 30.12 in 10.0 mi NW 16.1 mph 20.7 mph N/A   Overcast
8:52 PM 28.9 °F 18.6 °F 23.0 °F 78% 30.16 in 10.0 mi NNW 12.7 mph - N/A   Overcast
9:52 PM 28.9 °F 19.8 °F 23.0 °F 78% 30.19 in 10.0 mi NW 10.4 mph - N/A   Overcast
10:52 PM 28.9 °F 19.8 °F 23.0 °F 78% 30.21 in 10.0 mi NNW 10.4 mph - N/A   Overcast
11:49 PM 28.4 °F 19.7 °F 21.2 °F 74% 30.20 in 10.0 mi NW 9.2 mph - N/A   Overcast
11:52 PM 28.0 °F 19.3 °F 21.9 °F 78% 30.23 in 10.0 mi NW 9.2 mph - N/A   Overcast